Weather History for Price, UT

Change the Weather History Date:

Tuesday, May 6, 2014

  Actual Average Record
Temperature  
Mean Temperature 59 °F -  
Max Temperature 71 °F 64 °F 82 °F (1992)
Min Temperature 46 °F 36 °F 23 °F (1975)
Degree Days  
Heating Degree Days 6    
Growing Degree Days 9 (Base 50)    
Moisture  
Dew Point 14 °F    
Average Humidity 20    
Maximum Humidity 50    
Minimum Humidity 8    
Precipitation  
Precipitation 0.00 in - - ()
Sea Level Pressure  
Sea Level Pressure 29.48 in    
Wind  
Wind Speed 11 mph (SW)    
Max Wind Speed 29 mph    
Max Gust Speed 40 mph    
Visibility 10 miles    
Events      
Averages and records for this station are not official NWS values.
T = Trace of Precipitation, MM = Missing Value Source: NWS Daily Summary

Daily Weather History Graph

Daily Weather History Graph

Search for Another Location

Airport:

Trip Planner

Search our weather history database for the weather conditions in past years. The results will help you decide how hot, cold, wet, or windy it might be!

Date:

Astronomy

May. 06, 2014 Rise Set
Actual Time 6:17 AM MDT 8:22 PM MDT
Civil Twilight 5:48 AM MDT 8:51 PM MDT
Nautical Twilight 5:12 AM MDT 9:27 PM MDT
Astronomical Twilight 4:32 AM MDT 10:07 PM MDT
Moon 12:36 PM MDT (5/6) 1:43 AM MDT (5/6)
Length of Visible Light 15h 03m
Length of Day
14h 04m
Waxing Crescent, 46% of the Moon is Illuminated
May 6
Waxing Crescent
May 6
First Quarter
May 14
Full
May 21
Last Quarter
May 28
New

Hourly Weather History & Observations

Time (MDT) Temp. Dew Point Humidity Pressure Visibility Wind Dir Wind Speed Gust Speed Precip Events Conditions
12:53 AM 55.0 °F 3.9 °F 13% 29.56 in 10.0 mi NE 4.6 mph - N/A   Clear
1:53 AM 55.9 °F 3.9 °F 12% 29.52 in 10.0 mi East 4.6 mph - N/A   Clear
5:53 AM 53.1 °F 3.0 °F 13% 29.51 in 10.0 mi SSE 5.8 mph - N/A   Partly Cloudy
6:53 AM 54.0 °F 1.0 °F 12% 29.53 in 10.0 mi Variable 4.6 mph - N/A   Clear
8:53 AM 57.9 °F 3.0 °F 11% 29.51 in 10.0 mi Variable 3.5 mph - N/A   Clear
9:53 AM 62.1 °F 1.9 °F 9% 29.49 in 10.0 mi SE 6.9 mph - N/A   Clear
10:53 AM 66.0 °F 5.0 °F 9% 29.46 in 10.0 mi South 21.9 mph 29.9 mph N/A   Clear
11:53 AM 68.0 °F 5.0 °F 8% 29.43 in 10.0 mi SSW 26.5 mph 33.4 mph N/A   Partly Cloudy
12:53 PM 66.9 °F 6.1 °F 9% 29.44 in 10.0 mi South 28.8 mph 35.7 mph N/A   Partly Cloudy
1:53 PM 69.1 °F 10.0 °F 10% 29.41 in 9.0 mi SW 19.6 mph 40.3 mph N/A   Mostly Cloudy
2:53 PM 70.0 °F 10.9 °F 10% 29.41 in 10.0 mi SSW 21.9 mph 33.4 mph N/A   Partly Cloudy
3:53 PM 66.0 °F 15.1 °F 14% 29.42 in 10.0 mi SSW 16.1 mph 36.8 mph N/A   Scattered Clouds
4:53 PM 64.0 °F 17.1 °F 16% 29.42 in 10.0 mi SSW 11.5 mph 25.3 mph N/A   Scattered Clouds
5:53 PM 63.0 °F 18.0 °F 18% 29.44 in 10.0 mi SW 13.8 mph 24.2 mph N/A   Mostly Cloudy
6:43 PM 57.9 °F 26.1 °F 30% 29.58 in 10.0 mi WNW 12.7 mph 25.3 mph N/A   Mostly Cloudy
6:53 PM 57.0 °F 26.1 °F 30% 29.45 in 10.0 mi WNW 19.6 mph 26.5 mph N/A   Mostly Cloudy
7:53 PM 57.9 °F 24.1 °F 27% 29.44 in 10.0 mi NW 17.3 mph 27.6 mph N/A   Mostly Cloudy
8:53 PM 55.0 °F 27.0 °F 34% 29.46 in 10.0 mi NW 12.7 mph 21.9 mph N/A   Scattered Clouds
9:53 PM 51.1 °F 28.9 °F 43% 29.51 in 10.0 mi NNW 12.7 mph 21.9 mph N/A   Clear
10:53 PM 48.9 °F 30.0 °F 48% 29.52 in 10.0 mi NNW 11.5 mph - N/A   Clear
11:53 PM 46.9 °F 28.9 °F 50% 29.53 in 10.0 mi NNW 5.8 mph - N/A   Partly Cloudy